Weather History for Leite Lopes, Brazil

Change the Weather History Date:

Saturday, December 8, 2012

  Actual Average Record
Temperature  
Mean Temperature 84 °F -  
Max Temperature 96 °F - - ()
Min Temperature 73 °F - - ()
Cooling Degree Days 20    
Growing Degree Days 34 (Base 50)    
Moisture  
Dew Point 71 °F    
Average Humidity 66    
Maximum Humidity 88    
Minimum Humidity 39    
Precipitation  
Precipitation 0.00 in - - ()
Sea Level Pressure  
Sea Level Pressure 29.89 in    
Wind  
Wind Speed 4 mph ()    
Max Wind Speed 17 mph    
Max Gust Speed -    
Visibility 6.2 miles    
Events Thunderstorm    
T = Trace of Precipitation, MM = Missing Value Source: Averaged Metar Reports

Daily Weather History Graph

Daily Weather History Graph

Search for Another Location

Airport:

Trip Planner

Search our weather history database for the weather conditions in past years. The results will help you decide how hot, cold, wet, or windy it might be!

Date:

Astronomy

Dec. 08, 2012 Rise Set
Actual Time 6:21 AM BRST 7:44 PM BRST
Civil Twilight 5:57 AM BRST 8:09 PM BRST
Nautical Twilight 5:27 AM BRST 8:38 PM BRST
Astronomical Twilight 4:57 AM BRST 9:09 PM BRST
Moon 2:07 AM BRST (12/8) 2:54 PM BRST (12/8)
Length of Visible Light 14h 12m
Length of Day
13h 22m
Waning Crescent, 30% of the Moon is Illuminated
Dec 8
Waning Crescent
Dec 13
New
Dec 20
First Quarter
Dec 28
Full
Jan 5
Last Quarter

Hourly Weather History & Observations

Time (BRST) Temp. Heat Index Dew Point Humidity Pressure Visibility Wind Dir Wind Speed Gust Speed Precip Events Conditions
12:00 AM 78.8 °F - 69.8 °F 74% 29.92 in - SE 5.8 mph - N/A   Clear
1:00 AM 78.8 °F - 69.8 °F 74% 29.92 in - ESE 3.5 mph - N/A   Clear
2:00 AM 77.0 °F - 69.8 °F 78% 29.89 in - ESE 4.6 mph - N/A   Clear
3:00 AM 75.2 °F - 69.8 °F 83% 29.89 in - Calm Calm - N/A   Clear
4:00 AM 75.2 °F - 69.8 °F 83% 29.89 in - ENE 1.2 mph - N/A   Clear
5:00 AM 75.2 °F - 69.8 °F 83% 29.89 in - SE 1.2 mph - N/A   Clear
6:00 AM 73.4 °F - 69.8 °F 88% 29.89 in - Calm Calm - N/A   Clear
7:00 AM 73.4 °F - 69.8 °F 88% 29.92 in - ESE 5.8 mph - N/A   Clear
8:00 AM 78.8 °F - 71.6 °F 78% 29.95 in - ESE 5.8 mph - N/A   Clear
9:00 AM 84.2 °F 89.6 °F 71.6 °F 66% 29.95 in - East 2.3 mph - N/A   Clear
10:00 AM 87.8 °F 93.8 °F 71.6 °F 58% 29.95 in - ENE 1.2 mph - N/A   Clear
11:00 AM 91.4 °F 98.4 °F 71.6 °F 52% 29.95 in - NW 4.6 mph - N/A   Clear
12:00 PM 93.2 °F 98.8 °F 69.8 °F 46% 29.92 in 6.2 mi NNW 4.6 mph - N/A   Scattered Clouds
1:00 PM 91.4 °F 98.4 °F 71.6 °F 52% 29.92 in 6.2 mi NNE 2.3 mph - N/A   Mostly Cloudy
2:00 PM 96.8 °F 101.8 °F 68.0 °F 39% 29.86 in 6.2 mi West 4.6 mph - N/A   Mostly Cloudy
3:00 PM 96.8 °F 101.8 °F 68.0 °F 39% 29.83 in 6.2 mi West 2.3 mph - N/A   Mostly Cloudy
4:00 PM 91.4 °F 98.4 °F 71.6 °F 52% 29.83 in 6.2 mi South 17.3 mph - N/A   Partly Cloudy
5:00 PM 86.0 °F 93.4 °F 73.4 °F 66% 29.80 in 6.2 mi East 11.5 mph - N/A Thunderstorm Thunderstorm
6:00 PM 89.6 °F 96.2 °F 71.6 °F 55% 29.80 in 6.2 mi NE 6.9 mph - N/A   Scattered Clouds
7:00 PM 87.8 °F 93.8 °F 71.6 °F 58% 29.83 in 6.2 mi ESE 3.5 mph - N/A   Partly Cloudy
8:00 PM 86.0 °F 91.8 °F 71.6 °F 62% 29.86 in 6.2 mi ESE 3.5 mph - N/A   Scattered Clouds
9:00 PM 82.4 °F 87.2 °F 71.6 °F 70% 29.86 in 6.2 mi SE 8.1 mph - N/A   Scattered Clouds
10:00 PM 80.6 °F 84.6 °F 71.6 °F 74% 29.89 in - SE 2.3 mph - N/A   Clear
11:00 PM 80.6 °F 84.6 °F 71.6 °F 74% 29.92 in - SE 3.5 mph - N/A   Clear